Weather observations for the past three days for
Downtown Holman Field
Imperial (Metric)
Date Time (cdt) Wind (mph) Vis. (mi.) Weather Sky Cond. Temperature (ºF) Relative Humidity Wind Chill (°F) Heat Index (°F) Pressure Precipitation (in)
Air Dwpt 6 hour altimeter (in) sea level (mb) 1 hr 3 hr 6 hr
Max. Min.
14 04:53 NW 8 10.00 Fair CLR 60.1 51.1 72% 30.02 1016.0
14 03:53 NW 7 10.00 Fair CLR 61 50 67% 30 1015.5
14 01:53 NW 7 10.00 Fair CLR 64.9 50 59% 29.96 1014.1
14 00:53 NW 7 10.00 Fair CLR 66 50 82 66 56% 29.94 1013.4
13 23:53 N 12 10.00 Fair CLR 72 48.9 44% 29.93 1013.1
13 22:53 NW 12 10.00 Fair CLR 68 51.1 55% 29.91 1012.3
13 21:53 Calm 10.00 Fair CLR 71.1 52 51% 29.88 1011.4
13 20:53 Calm 10.00 Fair CLR 71.1 54 55% 29.86 1010.7
13 19:53 W 8 10.00 Fair CLR 79 44.1 29% 79 29.87 1010.8
13 18:53 NW 12 10.00 Fair CLR 82 42.1 84 79 24% 80 29.87 1010.9
13 17:53 NW 20 G 24 10.00 Fair CLR 82.9 44.1 25% 81 29.87 1010.8
13 16:53 NW 20 10.00 Fair CLR 84 42.1 23% 81 29.86 1010.4
13 15:53 NW 15 G 23 10.00 Fair CLR 82.9 48.9 31% 81 29.84 1010.0
13 14:53 N 14 10.00 Fair CLR 82 54 38% 81 29.84 1009.9
13 13:53 N 13 10.00 Fair CLR 81 53.1 38% 80 29.85 1010.3
13 12:53 NW 9 G 20 10.00 Fair CLR 80.1 51.1 80.1 64.9 37% 80 29.87 1010.7
13 11:53 W 7 10.00 Fair CLR 73.9 57 56% 29.89 1011.6
13 10:53 W 10 10.00 Fair CLR 71.1 59 66% 29.87 1011.1
13 09:53 W 3 10.00 Fair CLR 71.1 59 66% 29.85 1010.2
13 08:53 NW 7 10.00 Fair CLR 69.1 57.9 68% 29.83 1009.4
13 07:53 NW 7 10.00 Fair CLR 70 61 73% 29.79 1008.2
13 06:53 NW 3 8.00 Fair CLR 64.9 64 69.1 62.1 97% 29.75 1006.9
13 05:53 Calm 3.00 Fog/Mist CLR 63 62.1 97% 29.71 1005.6
13 04:53 SE 3 0.75 Fog/Mist CLR 64.9 64 97% 29.7 1005.2
13 03:53 S 5 10.00 Fair CLR 66 64.9 96% 29.69 1005.0
13 02:53 S 8 10.00 Fair CLR 66.9 64.9 93% 29.69 1005.0
13 01:53 SE 8 10.00 Fair CLR 68 66 93% 29.7 1005.2
13 00:53 S 8 10.00 A Few Clouds FEW075 FEW095 69.1 66 79 69.1 90% 29.7 1005.3 0.02 0.11
12 23:53 N 21 G 29 10.00 Thunderstorm and Breezy FEW044 BKN075 70 66.9 90% 29.74 1006.6 0.09
12 22:53 E 10 10.00 Thunderstorm in Vicinity BKN070 BKN095 OVC110 73 64 74% 29.7 1005.3
12 21:53 E 5 10.00 Partly Cloudy FEW070 SCT120 73.9 64.9 74% 29.71 1005.6
12 20:53 Vrbl 3 10.00 Fair CLR 75 64.9 71% 77 29.68 1004.4
12 19:53 S 8 10.00 Fair CLR 75.9 64.9 69% 78 29.67 1004.0
12 18:53 SW 15 G 29 10.00 Fair CLR 80.1 64 81 64.9 58% 82 29.65 1003.4 0.1
12 17:53 S 13 10.00 Fair CLR 78.1 64.9 64% 80 29.68 1004.6
12 16:53 S 13 10.00 Fair CLR 80.1 66 62% 82 29.72 1005.7
12 15:53 S 13 10.00 Fair CLR 75.9 64.9 69% 78 29.74 1006.5 0.1
12 14:53 Calm 10.00 Overcast FEW050 SCT065 OVC090 69.1 64.9 87% 29.77 1007.7 0.1
12 13:53 S 9 10.00 Fair CLR 69.1 63 81% 29.77 1007.6
12 12:53 S 7 10.00 Fair CLR 64.9 61 69.1 63 87% 29.77 1007.7 0.16
12 11:53 SE 14 10.00 Fair CLR 64.9 60.1 84% 29.77 1007.6 0.02
12 10:53 S 23 G 33 2.50 Rain and Breezy BKN055 BKN070 OVC110 64.9 59 81% 29.77 1007.9 0.11
12 09:53 E 5 9.00 Light Rain OVC110 66 57.9 75% 29.8 1008.6 0.03 0.03
12 08:53 SE 3 10.00 Mostly Cloudy BKN110 69.1 55.9 63% 29.79 1008.4
12 06:53 SE 8 10.00 Mostly Cloudy BKN110 64 55 64.9 57.9 73% 29.78 1007.9
12 05:53 SE 6 10.00 Fair CLR 61 57 87% 29.82 1009.1
12 04:53 Calm 10.00 Fair CLR 60.1 55.9 86% 29.82 1009.2
12 03:53 Calm 10.00 Fair CLR 61 55.9 84% 29.82 1009.3
12 02:53 Calm 8.00 Fair CLR 61 55.9 84% 29.83 1009.6
12 01:53 Calm 10.00 Fair CLR 62.1 55.9 80% 29.82 1009.3
12 00:53 Calm 10.00 Fair CLR 64 59 81 64 84% 29.82 1009.1
11 23:53 Calm 10.00 Fair CLR 66.9 55.9 68% 29.81 1008.9
11 22:53 Calm 10.00 Fair CLR 66 57 73% 29.8 1008.7
11 21:53 Calm 10.00 Fair CLR 71.1 57 61% 29.79 1008.2
11 20:53 SW 3 10.00 Fair CLR 75.9 52 43% 78 29.77 1007.7
11 19:53 W 13 10.00 Fair CLR 80.1 50 35% 80 29.77 1007.7
11 18:53 W 14 10.00 Fair CLR 82 50 82.9 75 33% 81 29.76 1007.2
11 17:53 W 15 10.00 Fair CLR 82 50 33% 81 29.76 1007.4
11 16:53 NW 18 G 28 10.00 Partly Cloudy SCT070 SCT090 82.9 54 37% 82 29.77 1007.4
11 15:53 W 14 G 21 10.00 Mostly Cloudy SCT065 BKN100 81 57 44% 81 29.77 1007.4
11 14:53 W 9 G 21 10.00 Partly Cloudy FEW055 SCT070 81 57 44% 81 29.77 1007.6
11 13:53 W 7 G 18 10.00 Fair CLR 78.1 59 52% 79 29.78 1008.1
11 12:53 SW 12 10.00 A Few Clouds FEW040 75 57.9 75 57 55% 78 29.79 1008.5 0.05
11 11:53 S 8 10.00 Overcast OVC039 70 55.9 61% 29.81 1009.0
11 10:53 S 9 10.00 Overcast BKN047 OVC080 64.9 54 68% 29.82 1009.5
11 09:53 S 12 10.00 Overcast OVC060 62.1 53.1 73% 29.84 1010.1 0.05
11 08:53 SE 10 10.00 Overcast OVC065 59 52 78% 29.85 1010.3
11 07:53 SE 10 10.00 Light Rain OVC065 57.9 52 81% 29.87 1011.2 0.05
11 06:53 S 6 10.00 Light Rain FEW060 OVC100 57.9 51.1 61 57 78% 29.89 1011.9 0.02 0.02
11 05:53 SE 7 10.00 Mostly Cloudy BKN070 61 46.9 60% 29.91 1012.2
Date Time (cdt) Wind (mph) Vis. (mi.) Weather Sky Cond. Air Dwpt Max. Min. Relative Humidity Wind Chill (°F) Heat Index (°F) altimeter (in) sea level (mb) 1 hr 3 hr 6 hr
6 hour
Temperature (ºF) Pressure Precipitation (in)